Regional Weather Roundup
Issued by NWS Grand Forks, ND

Home | Current Version | Previous Version | Text Only | Print | Product List | Glossary On
Versions: 1 2 3 4 5 6 7 8 9 10 11 12 13 14 15 16 17 18 19 20 21 22 23 24 25 26 27 28 29 30 31 32 33 34 35 36 37 38 39 40 41 42 43 44 45 46 47 48 49 50
000
ASUS43 KFGF 242331
RWRFGF
PRAIRIE TO PINES  WEATHER ROUNDUP
NATIONAL WEATHER SERVICE EASTERN NORTH DAKOTA/GRAND FORKS ND
600 PM CDT FRI OCT 24 2014

 **SATELLITE DATA USED TO AUGMENT SKY COVER AT AUTOMATED STATIONS**
 *****  WEATHER ACROSS EASTERN NORTH DAKOTA  *****

CITY           SKY/WX    TMP DP  RH WIND       PRES   REMARKS
GRAND FORKS    PTCLDY    66  32  28 W14       29.78R
GRAND FRKS AFB PTCLDY    66  31  27 W9        29.80R
GRAND FRKS NWS   N/A     61 N/A N/A W13         N/A
DEVILS LAKE    CLEAR     61  32  33 W16       29.82R
FARGO          PTCLDY    72  40  31 W20       29.80R
WAHPETON ARPT  PTCLDY    70  36  28 W12       29.83R
$$

 ***** WEATHER ACROSS CENTRAL AND WESTERN NORTH DAKOTA  *****

CITY           SKY/WX    TMP DP  RH WIND       PRES   REMARKS
BISMARCK       MOCLDY    64  34  32 W14       29.95R
MINOT          CLEAR     61  27  27 W15G23    29.89R
JAMESTOWN      CLEAR     63  33  32 W15       29.88R
MINOT AFB      CLEAR     60  30  32 W16G24    29.87R
GARRISON         N/A     60  30  32 NW17      29.92R
WILLISTON      MOCLDY    59  26  28 W15G23    29.96R
DICKINSON      CLOUDY    57  30  35 W12       30.00R
HETTINGER      CLOUDY    59  32  36 NW12      30.02S
$$

 *****  OTHER AIRPORT OBSERVATIONS IN OUR AREA  *****

CITY           SKY/WX    TMP DP  RH WIND       PRES   REMARKS
WALHALLA         N/A     63  36  36 W16G28    29.76R
GRAFTON AIRPOR FAIR      63  36  36 W17G24    29.77R
VALLEY CITY AR FAIR      64  32  29 W17G24    29.88R
CANDO          FAIR      57  32  38 NW18G25   29.83R
CAVALIER APRT  FAIR      63  36  36 W18G26    29.76R
GWINNER        CLEAR     70  43  37 W12       29.88R
ROLLA          FAIR      57  32  38 W14G22    29.83R
 ***** THE ABOVE OBSERVATIONS ARE NON NWS ARE NOT QUALITY
       CONTROLLED AND MAY MIS-REPORT RAIN FOR SNOW...
$$

  *****  WEATHER ACROSS NORTHERN MINNESOTA  *****

CITY           SKY/WX    TMP DP  RH WIND       PRES   REMARKS
FLAG ISLAND    PTCLDY    64  32  29 W24G36    29.63R
WARROAD        PTCLDY    64  34  32 W17G28    29.68R
ROSEAU         CLEAR     64  30  27 W14G31    29.70R
HALLOCK        CLEAR     64  30  27 W18G24    29.74R
THF RVR FALLS  CLEAR     64  36  34 W18G24    29.77R
BAUDETTE       PTCLDY    68  39  34 W8G22     29.65R
WASKISH        CLEAR     59  46  63 SW13      29.72R
CROOKSTON      PTCLDY    64  34  32 W16       29.80R
STEPHEN NDAWN    N/A     64  32  29 W15         N/A
GREENBUSH NDAW   N/A     64  34  32 W14         N/A
$$
  *****  WEATHER ACROSS CENTRAL AND WEST MINNESOTA  *****

CITY           SKY/WX    TMP DP  RH WIND       PRES   REMARKS
FOSSTON        PTCLDY    63  37  39 W13       29.79R
BEMIDJI        PTCLDY    66  42  41 W10       29.76R
PARK RAPIDS    MOCLDY    62  41  46 SW9       29.79R
ELBOW LAKE     FAIR      69  44  39 W9        29.83R
WADENA         MOCLDY    64  43  45 SW7       29.81R
DETROIT LAKES  PTCLDY    68  41  37 W13       29.81S
MOORHEAD       PTCLDY    72  34  25 W12       29.82R
FERGUS FALLS   MOCLDY    68  37  32 W9        29.82R
MORRIS MN      MOCLDY    66  43  42 W8        29.84S
STAPLES        MOCLDY    63  39  42 W7        29.81S
$$
  *****  WEATHER ELSEWHERE ACROSS MINNESOTA  *****

CITY           SKY/WX    TMP DP  RH WIND       PRES   REMARKS
DULUTH         PTCLDY    64  50  60 SW12      29.75S
INTRNTL FALLS  PTCLDY    66  41  40 SW12G20   29.64F
ELY            PTCLDY    64  39  39 SW9       29.71R
CLOQUET        CLEAR     61  50  67 S7        29.78R
WHEATON        PTCLDY    66  43  42 W8        29.86R
BRAINERD       PTCLDY    62  40  44 W6        29.80R
HIBBING        CLEAR     67  39  35 SW5       29.74R
ALEXANDRIA     MOCLDY    67  42  40 W7        29.84S
SAINT CLOUD    MOCLDY    67  49  52 S6        29.82S
MINNEAPOLIS    MOCLDY    66  53  63 SW6       29.84S
$$

  *****  WEATHER ACROSS SOUTH DAKOTA  *****

CITY           SKY/WX    TMP DP  RH WIND       PRES   REMARKS
SIOUX FALLS    MOCLDY    72  41  32 NW6       29.91R
BROOKINGS      NOT AVBL
WATERTOWN      CLEAR     63  43  48 W6        29.91R
HURON          PTCLDY    75  37  25 NW6       29.90R
SISSETON         N/A     71  41  33 W8        29.85R
ABERDEEN       CLEAR     73  40  30 W9        29.90R
MITCHELL       CLEAR     74  41  30 S5        29.91S
PIERRE         CLEAR     74  38  27 N12       29.94R
MOBRIDGE       PTCLDY    69  37  30 NW10      29.94R
RAPID CITY     CLEAR     67  39  35 N10       30.04R
$$

  *****  SOME WEATHER IN NEARBY STATES *****

CITY           SKY/WX    TMP DP  RH WIND       PRES   REMARKS
GLASGOW MT     PTCLDY    59  27  29 NW15      30.00R
GREAT FALLS MT CLOUDY    54  35  48 SW12      30.04R
CHEYENNE WY    SUNNY     74  18  12 W12G25    30.18R
SCOTTSBLUFF NE CLEAR     80  32  17 NW14      30.03S
OMAHA NE       MOCLDY    73  56  54 W3        29.91R
DES MOINES IA  CLOUDY    66  60  81 SW5       29.90R
DAVENPORT IA   CLOUDY    66  52  60 S14       29.90F
CHICAGO IL     MOCLDY    63  45  51 S8        29.94F
EAU CLAIRE WI  CLOUDY    57  55  93 S7        29.87S FOG
LA CROSSE WI   CLOUDY    61  56  83 SW8       29.89R
$$

  *****  SOME NATIONAL WEATHER *****

CITY           SKY/WX    TMP DP  RH WIND       PRES   REMARKS
LA GUARDIA NY  MOCLDY    58  47  66 E6        29.79R
RALEIGH NC     MOCLDY    58  48  69 W3        29.98R
ATLANTA GA     CLEAR     67  42  40 NW7       30.00F
NEW ORLEANS LA PTCLDY    72  47  40 NW8       30.06R
OKLAHOMA CITY  MOCLDY    81  60  48 S9        30.02F
ALBUQUERQUE NM SUNNY     77  31  18 S6        30.24F
SALT LAKE CITY SUNNY     73  39  29 W9        30.09S
LOS ANGELES CA MOSUNNY   76  63  64 W9        29.93S
BOISE ID       SUNNY     66  50  56 NW9       29.98F
SEATTLE WA     CLOUDY    57  47  69 N12       29.94F
$$

*** WEATHER ACROSS MANITOBA...SASKATCHEWAN AND ONTARIO ***
                ***ONTARIO***

CITY           SKY/WX    TMP DP  RH WIND       PRES   REMARKS
GERALDTON      CLOUDY    46  45  93 SW12      29.65F FOG
THUNDER BAY    MOCLDY    50  46  87 NE6       29.67S
SIOUX LOOKOUT  MOCLDY    57  43  58 SW9       29.56F
TORONTO        PTCLDY    54  43  66 W8        29.93S
BIG TROUT LK   CLOUDY    52  45  76 SE8       29.39F
PICKLE LAKE    CLOUDY    57  45  62 S10       29.47F
DRYDEN         MOCLDY    59  43  55 SW15G23   29.58S
KENORA         MOCLDY    63  41  45 W12       29.60R
$$
                *** MANITOBA***

CITY           SKY/WX    TMP DP  RH WIND       PRES   REMARKS
BRANDON        PTCLDY    59  32  36 W24G35    29.78R
DAUPHIN        CLEAR     55  32  41 NW17G35   29.69R
ISLAND LAKE    LGT RAIN  48  48 100 SW8       29.38F
PILOT MOUND      N/A     59  30  33 W15G23      N/A
THE PAS        CLOUDY   N/A N/A N/A W13G23      N/A
THOMPSON       MOCLDY    43  41  93 W3        29.41S
WINNIPEG       PTCLDY    59  37  44 W21       29.69R
LYNN LAKE      CLOUDY    37  36  93 W12G18    29.40R
CHURCHILL      FOG       37  37 100 E9        29.40F VSB 3/4
GILLAM         CLOUDY    43  41  93 N5        29.39S
$$
                ***SASKATCHEWAN***

CITY           SKY/WX    TMP DP  RH WIND       PRES   REMARKS
ESTEVAN        PTCLDY    57  28  33 W18G25    29.90R
KINDERSLEY     PTCLDY    50  28  43 W12G20    29.92R
LLOYDMINSTER   PTCLDY    48  23  37 W18G26    29.84R
PRINCE ALBERT  MOCLDY    50  32  50 W18G26    29.75R
REGINA         PTCLDY    54  32  43 W18G28    29.89R
YORKTON        CLEAR     52  32  46 W21G30    29.77R
N. BATTLEFORD  CLEAR     50  23  34 W22G29    29.85R
LA RONGE       MOCLDY    39  32  75 W15G22    29.67
SASKATOON      PTCLDY    52  27  37 W23G31    29.85R
SWIFT CURRENT  CLEAR     52  28  40 W15G21    29.94R
$$
NOTE: THESE ARE AUTOMATED STATIONS WITH LIMITED QUALITY CONTROL
      "FAIR" INDICATES FEW OR NO CLOUDS BELOW 12,000 FEET WITH NO
      SIGNIFICANT WEATHER AND/OR OBSTRUCTIONS TO VISIBILITY.
      SKY/WX - SKY CONDITION AND SIGNIFICANT WEATHER.
      TMP - AIR TEMPERATURE.    DP   - DEWPOINT TEMPERATURE.
      RH  - RELATIVE HUMIDITY.  PRES - PRESSURE.
      HX  - HEAT INDEX.         WCI  - WIND CHILL INDEX.
$



USA.gov is the U.S. government's official web portal to all federal, state and local government web resources and services.